Location: Dal�� Lhota
(48.7500°N, 14.0167°E)
Time: 09:29:16
(UTC+00:00)

Explorer 7 - Pass Details

Date: 02 August 2021
Orbit: 484 x 676 km, 50.3° (Epoch: 21 September)

Event Time Altitude Azimuth Distance (km) Brightness Sun altitude
Rises 05:19:56 0° 256° (WSW) 2,569 9.6 14.8°
Reaches altitude 10° 05:22:04 10° 257° (WSW) 1,705 8.8 15.1°
Maximum altitude 05:25:56 86° 343° (NNW) 524 7.0 15.8°
Drops below altitude 10° 05:30:01 10° 76° (ENE) 1,800 12.0 16.4°
Sets 05:32:19 0° 76° (ENE) 2,727 12.1 16.8°
